Location: Narrabri
(30.3170°S, 149.7830°E)
Time: 22:52:33
(UTC+11:00)

OTV 5 (USA 277) - Pass Details

Date: 11 October 2017
Orbit: 404 x 417 km, 43.0° (Epoch: 07 September)

Event Time Altitude Azimuth Distance (km) Brightness Sun altitude
Exits shadow 05:12:37 - 4° (N) 1,863 ? -16.5°
Reaches altitude 10° 05:15:04 10° 39° (NE) 1,458 ? -16.0°
Maximum altitude 05:15:24 10° 45° (NE) 1,452 ? -16.0°
Drops below altitude 10° 05:15:44 10° 51° (NE) 1,460 ? -15.9°
Sets 05:19:42 0° 98° (E) 2,331 ? -15.1°
